sat.trackr.live / text

‹ back to catalog

STARLINK-5146

NORAD 54073 · 2022-136Y

PAYLOAD ACTIVE UNKNOWN

§ Identity

Operator
Country
US
Launch date
2022-10-20
Launch site
AFETR
Launch vehicle
Mass (kg)
RCS (m²)

Purposes: comms

External: N2YO · Heavens-Above · Gunter

§ Orbital elements

Epoch: 2026-05-24T23:05:59.233632Z

Period
95.44 min
Inclination
53.2124°
Eccentricity
0.0001603
Mean motion
15.08838862 rev/d
Perigee alt
538.6 km
Apogee alt
540.9 km
Semi-major
6,917.9 km
B*
-2.4997e-5
RAAN
356.3758°
Arg perigee
86.7498°
Mean anomaly
273.3677°
Rev number
19,843

§ Raw data

STARLINK-51461 54073U 22136Y   26144.96249113 -.00000686  00000+0 -24997-4 0  99912 54073  53.2124 356.3758 0001603  86.7498 273.3677 15.08838862198436

JSON: /api/v1/satellites/54073 · /tle

For live sub-satellite position, see the globe view (requires WebGL).

§ Visibility from observer

Set your observer location to see the next 7 days of passes ≥ 10°. The values pass through the URL so the page stays shareable.

No JS? Fill the form by hand. The geolocation button needs JavaScript.